Location: Bellerive
(46.9237°N, 7.0223°E)
Time: 09:12:29
(UTC+00:00)

ERBS - Pass Details

Date: 09 April 2020
Orbit: 409 x 426 km, 57.0° (Epoch: 02 June)

Event Time Altitude Azimuth Distance (km) Brightness Sun altitude
Rises 20:07:43 0° 308° (NW) 2,398 7.8 -18.7°
Reaches altitude 10° 20:09:49 10° 310° (NW) 1,529 6.3 -19.0°
Maximum altitude 20:13:15 82° 38° (NE) 438 2.2 -19.5°
Enters shadow 20:13:26 76° 91° (E) 445 2.1 -19.5°
